Garrison, ND

3:24 PM CDT on March 24, 2017 (GMT -0500)
Garrison

Weather History for KN60 - February, 2013

Change the Weather History Date:

Thursday, February 7, 2013

  Actual Average Record
Temperature  
Mean Temperature 18 °F -  
Max Temperature 22 °F - 46 °F (2002)
Min Temperature 14 °F - -20 °F (2004)
Degree Days  
Heating Degree Days 47    
Month to date heating degree days 332  
Cooling Degree Days 0    
Moisture  
Dew Point 16 °F    
Average Humidity 90    
Maximum Humidity 96    
Minimum Humidity 84    
Precipitation  
Precipitation 0.00 in - 0.22 in (2017)
Month to date precipitation 0.25  
Year to date precipitation 0.75  
Sea Level Pressure  
Sea Level Pressure 30.21 in    
Wind  
Wind Speed 10 mph (ESE)    
Max Wind Speed 14 mph    
Max Gust Speed 16 mph    
T = Trace of Precipitation, MM = Missing Value Source: NWS Daily Summary

Daily Weather History Graph

Daily Weather History Graph

Search for Another Location

Airport or City:

Trip Planner

Search our weather history database for the weather conditions in past years. The results will help you decide how hot, cold, wet, or windy it might be!

Date:

Astronomy

Feb. 07, 2013 Rise Set
Actual Time 8:03 AM CST 5:56 PM CST
Civil Twilight 7:31 AM CST 6:29 PM CST
Nautical Twilight 6:54 AM CST 7:05 PM CST
Astronomical Twilight 6:18 AM CST 7:41 PM CST
Moon 5:51 AM CST (2/7) 3:17 PM CST (2/7)
Length of Visible Light 10h 58m
Length of Day
9h 53m
Waning Crescent, 9% of the Moon is Illuminated
Feb 7
Waning Crescent
Feb 10
New
Feb 17
First Quarter
Feb 25
Full
Mar 4
Last Quarter

Hourly Weather History & Observations

Time (CST) Temp. Windchill Dew Point Humidity Pressure Visibility Wind Dir Wind Speed Gust Speed Precip Events Conditions
12:52 AM 16.0 °F 4.4 °F 14.0 °F 92% 30.16 in - East 9.2 mph - N/A   Unknown
1:52 AM 16.0 °F 3.6 °F 14.0 °F 92% 30.16 in - East 10.4 mph - N/A   Unknown
2:52 AM 15.1 °F 4.2 °F 12.9 °F 91% 30.19 in - East 8.1 mph - N/A   Unknown
3:52 AM 14.0 °F 0.5 °F 12.0 °F 92% 30.19 in - East 11.5 mph - N/A   Unknown
4:52 AM 14.0 °F 2.0 °F 10.9 °F 88% 30.19 in - East 9.2 mph - N/A   Unknown
5:52 AM 14.0 °F 2.0 °F 10.9 °F 88% 30.20 in - East 9.2 mph - N/A   Unknown
6:52 AM 14.0 °F 2.9 °F 12.0 °F 92% 30.20 in - ESE 8.1 mph - N/A   Unknown
7:52 AM 14.0 °F 2.0 °F 12.0 °F 92% 30.21 in - ESE 9.2 mph - N/A   Unknown
8:52 AM 15.1 °F 2.5 °F 12.0 °F 88% 30.23 in - ESE 10.4 mph - N/A   Unknown
9:52 AM 15.1 °F 2.5 °F 12.9 °F 91% 30.25 in - ESE 10.4 mph - N/A   Unknown
10:52 AM 16.0 °F 2.3 °F 14.0 °F 92% 30.25 in - ESE 12.7 mph - N/A   Unknown
11:52 AM 18.0 °F 5.4 °F 15.1 °F 88% 30.26 in - ESE 11.5 mph - N/A   Unknown
12:52 PM 19.0 °F 7.5 °F 16.0 °F 88% 30.25 in - SE 10.4 mph - N/A   Unknown
1:52 PM 19.9 °F 9.3 °F 17.1 °F 89% 30.23 in - SE 9.2 mph - N/A   Unknown
2:52 PM 21.0 °F 11.4 °F 19.0 °F 92% 30.22 in - SE 8.1 mph - N/A   Unknown
3:52 PM 21.9 °F 12.5 °F 19.0 °F 89% 30.22 in - SE 8.1 mph - N/A   Unknown
4:52 PM 21.9 °F 11.7 °F 19.9 °F 92% 30.21 in - SE 9.2 mph - N/A   Unknown
5:52 PM 21.9 °F 11.0 °F 19.0 °F 89% 30.21 in - SSE 10.4 mph - N/A   Unknown
6:52 PM 21.9 °F 11.7 °F 19.9 °F 92% 30.21 in - SE 9.2 mph - N/A   Unknown
7:52 PM 21.9 °F 11.7 °F 19.9 °F 92% 30.22 in - SSE 9.2 mph - N/A   Unknown
8:52 PM 23.0 °F 13.9 °F 21.0 °F 92% 30.21 in - SSE 8.1 mph - N/A   Unknown
9:52 PM 24.1 °F 15.2 °F 21.9 °F 91% 30.19 in - SSE 8.1 mph - N/A   Unknown
10:52 PM 24.1 °F 13.7 °F 23.0 °F 96% 30.19 in - SE 10.4 mph - N/A   Unknown
11:52 PM 25.0 °F 15.5 °F 24.1 °F 96% 30.17 in - SSE 9.2 mph - N/A   Unknown